Terminal Aerodrome Forecast
Issued by NWS Wilmington, OH

Current Version | Previous Version | Graphics & Text | Print | Product List | Glossary On
Versions: 1 2 3 4 5 6 7 8 9 10 11 12 13 14 15 16 17 18 19 20 21 22 23 24 25 26 27 28 29
000
FTUS41 KILN 232200 AAA
TAFILN
TAF AMD
KILN 232225Z 2322/2418 13012G20KT 4SM -SHRA BR SCT020 OVC050
      TEMPO 2323/2402 2SM SHRA BR OVC020
     FM240200 16014G22KT 5SM -SHRA BR OVC012
     FM240400 18016G24KT P6SM VCSH OVC006
     FM240900 19016G26KT P6SM VCSH BKN012
     FM241500 21020G34KT P6SM -SHRA FEW010 BKN025=

USA.gov is the U.S. government's official web portal to all federal, state and local government web resources and services.